User: anonymous   Login
Location: Caltech
(34.1382°N, 118.1253°W)
Time: 01:07:28
(UTC-07:00)
Language:

Lacrosse 5 rocket - Orbit

View from above orbital plane
View from above orbital plane
View from above satellite
View from above satellite

Ground track
Ground track

The orbit data is extracted from the following two-line orbital elements,

1 28647U 05016B   16235.87582527 0.00000700  00000-0  40927-4 0    06
2 28647  56.9940 146.3275 0130421 146.3415 213.6585 15.04451737    02
Epoch (UTC): 22 August 2016 21:01:11
Eccentricity: 0.0130421
inclination: 56.9940°
perigee height: 463 km
apogee height: 643 km
right ascension of ascending node: 146.3275°
argument of perigee: 146.3415°
revolutions per day: 15.04451737
mean anomaly at epoch: 213.6585°
orbit number at epoch: 0

The dashed part of the orbit path shows where the satellite is in the earth's shadow,  

DLR